ONEWEB-0144

Last updated on Mon Jan 18 2021 00:02:03 GMT+0000 (Coordinated Universal Time)

1 47290U 20100AJ 21017.58334491 -.01457801 00000-0 -11517+0 0 9995 2 47290 87.3766 29.1304 0009586 165.0525 159.5945 15.04104326 1849

Satellite not in orbit

ONEWEB-0144